AirNav   Textron
 
 303 users online  

IN46 Butler Field Airport
Rockville, Indiana, USA

GOING TO ROCKVILLE?


FAA INFORMATION EFFECTIVE 14 SEPTEMBER 2017

Location

FAA Identifier: IN46
Lat/Long: 39-44-20.1450N / 087-13-10.0510W
39-44.335750N / 087-13.167517W
39.7389292 / -87.2194586
(estimated)
Elevation: 687 ft. / 209.4 m (surveyed)
Variation: 01W (1985)
From city: 2 miles S of ROCKVILLE, IN
Time zone: UTC -4 (UTC -5 during Standard Time)
Zip code: 47872

Airport Operations

Airport use: Private use. Permission required prior to landing
Activation date: 09/1969
Control tower: no
ARTCC: INDIANAPOLIS CENTER
FSS: TERRE HAUTE FLIGHT SERVICE STATION
Attendance: UNATNDD
Wind indicator: yes
Segmented circle: no

Airport Communications

WX ASOS at HUF (18 nm S): PHONE 812-877-7010
WX AWOS-3PT at CFJ (20 nm NE): 125.650 (765-362-2967)
WX AWOS-3 at GPC (20 nm E): 118.125 (765-653-1789)

Nearby radio navigation aids

VOR radial/distance  VOR name  Freq  Var
TTHr003/15.1TERRE HAUTE VORTAC115.3002E
DNVr153/36.7DANVILLE VORTAC111.0002E
VHPr262/39.5BRICKYARD VORTAC116.3001E

 
NDB name  Hdg/Dist  Freq  Var  ID
CRAWFORDSVILLE226/20.238802WCFJ -.-. ..-. .---
SULLIVAN018/39.032602WSIV ... .. ...-

Airport Services

Fuel available: 100LL
FUEL NOT FOR SALE TO PUBLIC.
Parking: hangars
Airframe service: NONE
Powerplant service: NONE
Bottled oxygen: NONE
Bulk oxygen: NONE

Runway Information

Runway 9/27

Dimensions: 2081 x 65 ft. / 634 x 20 m
Surface: turf
RUNWAY 9  RUNWAY 27
Traffic pattern: leftleft
Obstructions: trees, 87 ft. from runway, 12:1 slope to cleartrees, 500 ft. from runway, 20:1 slope to clear

Airport Ownership and Management from official FAA records

Ownership: Privately-owned
Owner: JACK BUTLER
251 W. HWY US 36
ROCKVILLE, IN 47872
Phone 812-569-6379
Manager: J.B. BUTLER
251 W. US 36
ROCKVILLE, IN 47872

Airport Operational Statistics

Aircraft based on the field: 7
Single engine airplanes: 7
    

Additional Remarks

FOR INFO CTC JACK UNDERWOOD, 765-569-6915, BUTLER PILOS ASSOC.

Instrument Procedures

There are no published instrument procedures at IN46.

Some nearby airports with instrument procedures:

3I3 - Sky King Airport (14 nm SW)
0I2 - Brazil Clay County Airport (17 nm S)
KHUF - Terre Haute International Airport-Hulman Field (18 nm S)
KCFJ - Crawfordsville Municipal Airport (20 nm NE)
KGPC - Putnam County Regional Airport (20 nm E)
 
Loc | Ops | Rwys | IFR | FBO | Links
Com | Nav | Svcs | Stats | Notes


 
Area around IN46 (Butler Field Airport)
 
Road maps at: MapQuest Bing Google
 
Aerial photo
WARNING: Photo may not be current or correct
Aerial photo of IN46 (Butler Field Airport)
Photo taken 11-Jan-2010
looking east.

Do you have a better or more recent aerial photo of Butler Field Airport that you would like to share? If so, please send us your photo.

 
Sectional chart

 
Airport distance calculator
Flying to Butler Field Airport? Find the distance to fly.

From to IN46

Sunrise and sunset
Times for 23-Sep-2017
 Local
(UTC-4)
 Zulu
(UTC)
Morning civil twilight07:1111:11
Sunrise07:3811:38
Sunset19:4423:44
Evening civil twilight20:1100:11

Current date and time
Zulu (UTC)  23-Sep-2017 09:15:00
Local (UTC-4)  23-Sep-2017 05:15:00
 
METAR
KHUF 
18nm S 
230853Z 00000KT 7SM CLR 19/18 A3005 RMK AO2 SLP169 T01890178 55001
KGPC 
20nm E 
230855Z AUTO 00000KT 7SM CLR 18/18 A3007 RMK AO2
KPRG 
21nm W 
230855Z AUTO 00000KT 10SM CLR 20/19 A3006 RMK AO2 T01970194
KDNV 
33nm NW 
230855Z AUTO 00000KT 7SM CLR 18/18 A3003 RMK AO2 T01800178
TAF
KHUF 
18nm S 
230524Z 2306/2406 VRB03KT P6SM SCT250 TEMPO 2309/2313 3SM BR FM231600 11005KT P6SM FEW045 SCT250
NOTAMs
Click for the latest NOTAMs
NOTAMs are issued by the DoD/FAA and will open in a separate window not controlled by AirNav.

 

 
 

Would you like to see your business listed on this page?

 If your business provides an interesting product or service to pilots, flight crews, aircraft, or users of the Butler Field Airport, you should consider listing it here.  To start the listing process, click on the button below
 
Add a business
 

Other Pages about Butler Field Airport

Update a link
 
Copyright © AirNav, LLC. All rights reserved. Privacy Policy  Contact